Location: Baia de Cri?
(46.1667°N, 22.7167°E)
Time: 08:24:08
(UTC+00:00)

Cosmos 1743 Rocket - Pass Details

Date: 15 January 2026
Orbit: 597 x 626 km, 82.6° (Epoch: 9 February)

Event Time Altitude Azimuth Distance (km) Brightness Sun altitude
Rises 04:01:41 0° 175° (S) 2,897 7.2 -21.3°
Reaches altitude 10° 04:03:57 10° 170° (S) 1,994 6.4 -20.9°
Maximum altitude 04:08:15 53° 94° (E) 768 4.3 -20.2°
Drops below altitude 10° 04:12:34 10° 18° (NNE) 2,000 6.2 -19.4°
Sets 04:14:50 0° 14° (NNE) 2,907 7.0 -19.1°
